Change the Weather History Date:

Thursday, November 21, 2013

  Actual Average (KFAR) Record (KFAR)
Temperature  
Mean Temperature 14 °F 25 °F  
Max Temperature 19 °F 34 °F 59 °F (2012)
Min Temperature 6 °F 17 °F -14 °F (1896)
Degree Days  
Heating Degree Days 52 40  
Month to date heating degree days 703  
Since 1 July heating degree days 1579  
Cooling Degree Days 0 0  
Month to date cooling degree days 0  
Year to date cooling degree days 551  
Moisture  
Dew Point 11 °F    
Average Humidity 85    
Maximum Humidity 93    
Minimum Humidity 73    
Precipitation  
Precipitation 0.00 in 0.03 in 1.05 in (1893)
Month to date precipitation 0.75  
Year to date precipitation 21.53  
Snow  
Snow 0.00 in 0.30 in 10.50 in (1893)
Month to date snowfall 4.7  
Since 1 July snowfall 5.4  
Since 1 September snowfall 5.4  
Snow Depth -    
Sea Level Pressure  
Sea Level Pressure 30.48 in    
Wind  
Wind Speed 19 mph (NNW)    
Max Wind Speed 26 mph    
Max Gust Speed 32 mph    
Visibility 10 miles    
Events      
T = Trace of Precipitation, MM = Missing Value Source: NWS Daily Summary

Daily Weather History Graph

Daily Weather History Graph

Search for Another Location

Airport or City:

Trip Planner

Search our weather history database for the weather conditions in past years. The results will help you decide how hot, cold, wet, or windy it might be!

Date:

Astronomy

Nov. 21, 2013 Rise Set
Actual Time 7:38 AM CST 4:46 PM CST
Civil Twilight 7:04 AM CST 5:20 PM CST
Nautical Twilight 6:27 AM CST 5:57 PM CST
Astronomical Twilight 5:51 AM CST 6:33 PM CST
Moon 8:26 PM CST (11/21) 10:44 AM CST (11/21)
Length of Visible Light 10h 15m
Length of Day
9h 07m
Waning Gibbous, 85% of the Moon is Illuminated
Nov 21
Waning Gibbous
Nov 25
Last Quarter
Dec 2
New
Dec 9
First Quarter
Dec 17
Full

Hourly Weather History & Observations

Time (CST) Temp. Windchill Dew Point Humidity Pressure Visibility Wind Dir Wind Speed Gust Speed Precip Events Conditions
12:14 AM 19.4 °F 2.8 °F 17.6 °F 93% 30.19 in 10.0 mi NNW 21.9 mph - N/A   Overcast
12:35 AM 19.4 °F 2.8 °F 17.6 °F 93% 30.19 in 10.0 mi NNW 21.9 mph 26.5 mph N/A   Overcast
12:55 AM 19.4 °F 2.8 °F 17.6 °F 93% 30.20 in 10.0 mi NNW 21.9 mph 27.6 mph N/A   Overcast
1:14 AM 17.6 °F -0.6 °F 15.8 °F 93% 30.21 in 10.0 mi North 25.3 mph 28.8 mph N/A   Overcast
1:35 AM 17.6 °F 0.5 °F 15.8 °F 93% 30.22 in 5.0 mi North 21.9 mph 26.5 mph N/A   Overcast
1:55 AM 17.6 °F -1.0 °F 15.8 °F 93% 30.23 in 10.0 mi North 26.5 mph 32.2 mph N/A   Overcast
2:14 AM 17.6 °F 0.1 °F 15.8 °F 93% 30.25 in 10.0 mi NNW 23.0 mph 29.9 mph N/A   Overcast
2:35 AM 17.6 °F 0.9 °F 15.8 °F 93% 30.26 in 10.0 mi North 20.7 mph 31.1 mph N/A   Overcast
2:54 AM 17.6 °F 1.3 °F 15.8 °F 93% 30.27 in 5.0 mi NNW 19.6 mph 29.9 mph N/A   Overcast
3:15 AM 17.6 °F 0.9 °F 15.8 °F 93% 30.28 in 4.0 mi NNW 20.7 mph 28.8 mph N/A   Overcast
3:35 AM 17.6 °F 0.5 °F 15.8 °F 93% 30.28 in 4.0 mi North 21.9 mph 28.8 mph N/A   Overcast
3:54 AM 17.6 °F 0.9 °F 15.8 °F 93% 30.30 in 7.0 mi North 20.7 mph 28.8 mph N/A   Overcast
4:15 AM 17.6 °F 0.5 °F 15.8 °F 93% 30.31 in 7.0 mi North 21.9 mph 29.9 mph N/A   Overcast
4:35 AM 15.8 °F -3.4 °F 14.0 °F 93% 30.32 in 10.0 mi North 26.5 mph 31.1 mph N/A   Overcast
4:55 AM 15.8 °F -1.5 °F 12.2 °F 86% 30.34 in 10.0 mi North 20.7 mph 32.2 mph N/A   Overcast
5:15 AM 15.8 °F -1.1 °F 14.0 °F 93% 30.35 in 10.0 mi North 19.6 mph - N/A   Overcast
5:34 AM 15.8 °F -2.7 °F 14.0 °F 93% 30.35 in 7.0 mi North 24.2 mph 29.9 mph N/A   Overcast
5:55 AM 15.8 °F -2.3 °F 14.0 °F 93% 30.36 in 10.0 mi North 23.0 mph 31.1 mph N/A   Overcast
6:15 AM 15.8 °F -2.3 °F 14.0 °F 93% 30.37 in 7.0 mi North 23.0 mph 29.9 mph N/A   Overcast
6:34 AM 15.8 °F -0.6 °F 12.2 °F 86% 30.38 in 10.0 mi North 18.4 mph 24.2 mph N/A   Overcast
6:55 AM 15.8 °F -1.5 °F 14.0 °F 93% 30.40 in 7.0 mi North 20.7 mph - N/A   Overcast
7:15 AM 15.8 °F -2.3 °F 12.2 °F 86% 30.42 in 10.0 mi North 23.0 mph 28.8 mph N/A   Overcast
7:34 AM 15.8 °F -1.5 °F 12.2 °F 86% 30.43 in 10.0 mi North 20.7 mph 25.3 mph N/A   Overcast
7:55 AM 15.8 °F -1.1 °F 12.2 °F 86% 30.44 in 10.0 mi North 19.6 mph 31.1 mph N/A   Overcast
8:15 AM 15.8 °F -1.9 °F 12.2 °F 86% 30.44 in 10.0 mi North 21.9 mph 26.5 mph N/A   Overcast
8:34 AM 15.8 °F -2.3 °F 12.2 °F 86% 30.45 in 10.0 mi North 23.0 mph 31.1 mph N/A   Overcast
8:55 AM 15.8 °F -1.5 °F 12.2 °F 86% 30.48 in 10.0 mi North 20.7 mph - N/A   Overcast
9:14 AM 14.0 °F -3.9 °F 10.4 °F 86% 30.49 in 10.0 mi North 20.7 mph 25.3 mph N/A   Overcast
9:35 AM 15.8 °F -0.6 °F 10.4 °F 79% 30.49 in 10.0 mi North 18.4 mph - N/A   Overcast
9:55 AM 15.8 °F -1.1 °F 10.4 °F 79% 30.50 in 10.0 mi North 19.6 mph - N/A   Overcast
10:14 AM 15.8 °F -1.1 °F 10.4 °F 79% 30.51 in 10.0 mi North 19.6 mph 26.5 mph N/A   Overcast
10:35 AM 15.8 °F -1.5 °F 10.4 °F 79% 30.51 in 10.0 mi North 20.7 mph - N/A   Overcast
10:55 AM 15.8 °F -0.6 °F 10.4 °F 79% 30.52 in 10.0 mi NNW 18.4 mph 25.3 mph N/A   Overcast
11:14 AM 15.8 °F -1.1 °F 10.4 °F 79% 30.53 in 10.0 mi North 19.6 mph - N/A   Overcast
11:35 AM 15.8 °F -1.1 °F 10.4 °F 79% 30.53 in 10.0 mi North 19.6 mph - N/A   Overcast
11:55 AM 15.8 °F -2.3 °F 10.4 °F 79% 30.52 in 10.0 mi North 23.0 mph 28.8 mph N/A   Overcast
12:14 PM 15.8 °F -1.9 °F 10.4 °F 79% 30.52 in 10.0 mi North 21.9 mph 25.3 mph N/A   Overcast
12:35 PM 15.8 °F -1.9 °F 10.4 °F 79% 30.53 in 10.0 mi NNW 21.9 mph - N/A   Overcast
12:55 PM 15.8 °F -0.6 °F 10.4 °F 79% 30.54 in 10.0 mi NNW 18.4 mph 24.2 mph N/A   Mostly Cloudy
1:14 PM 15.8 °F -1.1 °F 10.4 °F 79% 30.54 in 10.0 mi NNW 19.6 mph - N/A   Mostly Cloudy
1:35 PM 15.8 °F -1.1 °F 10.4 °F 79% 30.54 in 10.0 mi North 19.6 mph - N/A   Mostly Cloudy
1:55 PM 15.8 °F -0.2 °F 10.4 °F 79% 30.55 in 10.0 mi North 17.3 mph - N/A   Mostly Cloudy
2:14 PM 15.8 °F -0.6 °F 10.4 °F 79% 30.55 in 10.0 mi NNW 18.4 mph - N/A   Mostly Cloudy
2:35 PM 15.8 °F 0.3 °F 10.4 °F 79% 30.55 in 10.0 mi NNW 16.1 mph - N/A   Mostly Cloudy
2:54 PM 15.8 °F -0.6 °F 10.4 °F 79% 30.55 in 10.0 mi North 18.4 mph - N/A   Mostly Cloudy
3:15 PM 15.8 °F 0.9 °F 10.4 °F 79% 30.55 in 10.0 mi NNW 15.0 mph - N/A   Mostly Cloudy
3:34 PM 15.8 °F 0.9 °F 8.6 °F 73% 30.56 in 10.0 mi North 15.0 mph - N/A   Scattered Clouds
3:55 PM 14.0 °F -0.8 °F 8.6 °F 79% 30.57 in 10.0 mi NNW 13.8 mph - N/A   Scattered Clouds
4:15 PM 14.0 °F -1.4 °F 8.6 °F 79% 30.58 in 10.0 mi NNW 15.0 mph - N/A   Scattered Clouds
4:34 PM 14.0 °F -2.0 °F 8.6 °F 79% 30.59 in 10.0 mi NNW 16.1 mph - N/A   Scattered Clouds
4:55 PM 12.2 °F -1.8 °F 8.6 °F 85% 30.61 in 10.0 mi NNW 11.5 mph - N/A   Clear
5:15 PM 12.2 °F -3.1 °F 6.8 °F 79% 30.61 in 10.0 mi NNW 13.8 mph - N/A   Clear
5:34 PM 12.2 °F -3.1 °F 6.8 °F 79% 30.62 in 10.0 mi NNW 13.8 mph - N/A   Clear
5:55 PM 12.2 °F -2.5 °F 6.8 °F 79% 30.62 in 10.0 mi NNW 12.7 mph - N/A   Clear
6:15 PM 12.2 °F -1.0 °F 6.8 °F 79% 30.63 in 10.0 mi NNW 10.4 mph - N/A   Clear
6:34 PM 12.2 °F 1.7 °F 6.8 °F 79% 30.63 in 10.0 mi NNW 6.9 mph - N/A   Clear
6:55 PM 12.2 °F -0.2 °F 6.8 °F 79% 30.63 in 10.0 mi NNW 9.2 mph - N/A   Clear
7:15 PM 12.2 °F 0.7 °F 6.8 °F 79% 30.63 in 10.0 mi NNW 8.1 mph - N/A   Clear
7:35 PM 12.2 °F 0.7 °F 6.8 °F 79% 30.63 in 10.0 mi North 8.1 mph - N/A   Clear
7:55 PM 10.4 °F -0.4 °F 6.8 °F 85% 30.63 in 10.0 mi NNW 6.9 mph - N/A   Clear
8:14 PM 10.4 °F 0.8 °F 6.8 °F 85% 30.62 in 10.0 mi NNW 5.8 mph - N/A   Clear
8:35 PM 10.4 °F 2.2 °F 6.8 °F 85% 30.62 in 10.0 mi NNW 4.6 mph - N/A   Clear
8:55 PM 8.6 °F - 6.8 °F 92% 30.62 in 10.0 mi Calm Calm - N/A   Clear
9:15 PM 10.4 °F - 6.8 °F 85% 30.61 in 10.0 mi Calm Calm - N/A   Clear
9:35 PM 8.6 °F - 6.8 °F 92% 30.61 in 10.0 mi Calm Calm - N/A   Clear
9:54 PM 8.6 °F 0.1 °F 6.8 °F 92% 30.61 in 10.0 mi West 4.6 mph - N/A   Clear
10:15 PM 8.6 °F -1.3 °F 6.8 °F 92% 30.62 in 10.0 mi West 5.8 mph - N/A   Clear
10:35 PM 8.6 °F - 5.0 °F 85% 30.62 in 10.0 mi Calm Calm - N/A   Clear
10:54 PM 8.6 °F 2.0 °F 5.0 °F 85% 30.61 in 10.0 mi WSW 3.5 mph - N/A   Clear
11:15 PM 8.6 °F - 5.0 °F 85% 30.61 in 10.0 mi Calm Calm - N/A   Clear
11:35 PM 8.6 °F 2.0 °F 3.2 °F 79% 30.60 in 10.0 mi SSW 3.5 mph - N/A   Clear
11:54 PM 6.8 °F - 3.2 °F 85% 30.60 in 10.0 mi Calm Calm - N/A   Clear